Weather History for KMWH - June, 2013

Change the Weather History Date:

Thursday, June 20, 2013

  Actual Average Record
Temperature  
Mean Temperature 56 °F 67 °F  
Max Temperature 59 °F 81 °F 95 °F (1985)
Min Temperature 53 °F 53 °F 43 °F (1986)
Degree Days  
Heating Degree Days 9 1  
Month to date heating degree days 39 43  
Since 1 June heating degree days 39 43  
Since 1 July heating degree days 5320 5870  
Cooling Degree Days 0 3  
Month to date cooling degree days 62 44  
Year to date cooling degree days 112 69  
Since 1 June cooling degree days 62 44  
Growing Degree Days 5 (Base 50)    
Moisture  
Dew Point 49 °F    
Average Humidity 74    
Maximum Humidity 86    
Minimum Humidity 62    
Precipitation  
Precipitation 0.43 in 0.02 in 0.43 in (2013)
Month to date precipitation 1.38 0.61  
Year to date precipitation 3.46 4.63  
Sea Level Pressure  
Sea Level Pressure 29.93 in    
Wind  
Wind Speed 10 mph (SW)    
Max Wind Speed 17 mph    
Max Gust Speed 23 mph    
Visibility 10 miles    
Events Rain    
T = Trace of Precipitation, MM = Missing Value Source: NWS Daily Summary

Daily Weather History Graph

Daily Weather History Graph

Search for Another Location

Airport or City:

Trip Planner

Search our weather history database for the weather conditions in past years. The results will help you decide how hot, cold, wet, or windy it might be!

Date:

Astronomy

Jun. 20, 2013 Rise Set
Actual Time 5:01 AM PDT 8:56 PM PDT
Civil Twilight 4:20 AM PDT 9:37 PM PDT
Nautical Twilight 3:25 AM PDT 10:32 PM PDT
Astronomical Twilight 2:00 AM PDT 11:57 PM PDT
Moon 5:57 PM PDT (6/20) 2:40 AM PDT (6/20)
Length of Visible Light 17h 16m
Length of Day
15h 55m
Waxing Gibbous, 89% of the Moon is Illuminated
Jun 20
Waxing Gibbous
Jun 23
Full
Jun 29
Last Quarter
Jul 8
New
Jul 15
First Quarter

Hourly Weather History & Observations

Time (PDT) Temp. Dew Point Humidity Pressure Visibility Wind Dir Wind Speed Gust Speed Precip Events Conditions
12:52 AM 57.9 °F 48.0 °F 70% 29.86 in 10.0 mi SW 4.6 mph - 0.00 in   Overcast
1:52 AM 57.9 °F 45.0 °F 62% 29.85 in 10.0 mi WSW 11.5 mph - N/A   Overcast
2:52 AM 57.9 °F 44.1 °F 60% 29.85 in 10.0 mi West 12.7 mph - N/A   Overcast
3:52 AM 57.9 °F 46.0 °F 65% 29.85 in 10.0 mi West 12.7 mph - N/A   Overcast
4:52 AM 55.9 °F 46.9 °F 72% 29.86 in 10.0 mi West 9.2 mph - 0.01 in Rain Light Rain
5:52 AM 55.0 °F 46.0 °F 72% 29.86 in 10.0 mi WSW 8.1 mph - 0.00 in   Overcast
6:52 AM 54.0 °F 46.9 °F 77% 29.86 in 10.0 mi SW 6.9 mph - 0.01 in   Overcast
7:52 AM 54.0 °F 48.9 °F 83% 29.86 in 10.0 mi SW 4.6 mph - 0.01 in Rain Light Rain
8:52 AM 53.1 °F 48.9 °F 86% 29.87 in 10.0 mi South 9.2 mph - 0.05 in Rain Light Rain
9:52 AM 53.1 °F 48.9 °F 86% 29.89 in 10.0 mi SSW 10.4 mph - 0.03 in Rain Light Rain
10:52 AM 54.0 °F 48.9 °F 83% 29.89 in 9.0 mi SSW 11.5 mph - 0.06 in Rain Light Rain
11:52 AM 55.0 °F 50.0 °F 83% 29.90 in 10.0 mi SSW 13.8 mph - 0.07 in Rain Light Rain
12:52 PM 55.9 °F 48.9 °F 77% 29.91 in 10.0 mi SSW 11.5 mph - 0.01 in   Overcast
1:52 PM 55.0 °F 51.1 °F 86% 29.92 in 6.0 mi South 13.8 mph - 0.07 in Rain Rain
2:52 PM 55.9 °F 52.0 °F 87% 29.94 in 10.0 mi South 9.2 mph - 0.03 in Rain Light Rain
3:52 PM 55.9 °F 52.0 °F 87% 29.96 in 10.0 mi SSW 11.5 mph - 0.04 in Rain Light Rain
4:52 PM 57.0 °F 51.1 °F 81% 29.97 in 10.0 mi SSW 11.5 mph 19.6 mph 0.01 in   Overcast
5:52 PM 57.0 °F 51.1 °F 81% 29.99 in 10.0 mi SW 12.7 mph - 0.00 in Rain Light Rain
6:52 PM 55.9 °F 50.0 °F 80% 30.00 in 10.0 mi SW 9.2 mph - 0.01 in Rain Light Rain
7:52 PM 55.9 °F 48.9 °F 77% 30.01 in 10.0 mi SW 8.1 mph - 0.01 in   Overcast
8:52 PM 55.0 °F 48.9 °F 80% 30.03 in 10.0 mi SW 11.5 mph - 0.00 in Rain Light Rain
9:52 PM 54.0 °F 48.0 °F 80% 30.03 in 10.0 mi SW 12.7 mph - 0.01 in   Overcast
10:52 PM 53.1 °F 48.0 °F 83% 30.03 in 10.0 mi WSW 8.1 mph - N/A   Overcast
11:52 PM 53.1 °F 48.0 °F 83% 30.04 in 10.0 mi SW 5.8 mph - N/A   Overcast